Weather History for Tucumcari, NM

Change the Weather History Date:

Wednesday, May 8, 2013

  Actual Average Record
Temperature  
Mean Temperature 66 °F -  
Max Temperature 84 °F 80 °F 95 °F (1934)
Min Temperature 50 °F 48 °F 31 °F (1938)
Cooling Degree Days 1    
Growing Degree Days 16 (Base 50)    
Moisture  
Dew Point 27 °F    
Average Humidity 25    
Maximum Humidity 54    
Minimum Humidity 6    
Precipitation  
Precipitation 0.00 in - - ()
Sea Level Pressure  
Sea Level Pressure 29.76 in    
Wind  
Wind Speed 11 mph (WSW)    
Max Wind Speed 28 mph    
Max Gust Speed 36 mph    
Visibility 9 miles    
Events      
Averages and records for this station are not official NWS values.
T = Trace of Precipitation, MM = Missing Value Source: NWS Daily Summary

Daily Weather History Graph

Daily Weather History Graph

Search for Another Location

Airport:

Trip Planner

Search our weather history database for the weather conditions in past years. The results will help you decide how hot, cold, wet, or windy it might be!

Date:

Astronomy

May. 08, 2013 Rise Set
Actual Time 5:56 AM MDT 7:46 PM MDT
Civil Twilight 5:28 AM MDT 8:13 PM MDT
Nautical Twilight 4:54 AM MDT 8:47 PM MDT
Astronomical Twilight 4:19 AM MDT 9:23 PM MDT
Moon 5:02 AM MDT (5/8) 6:48 PM MDT (5/8)
Length of Visible Light 14h 45m
Length of Day
13h 50m
Waning Crescent, 2% of the Moon is Illuminated
May 8
Waning Crescent
May 9
New
May 17
First Quarter
May 24
Full
May 31
Last Quarter

Hourly Weather History & Observations

Time (MDT) Temp. Dew Point Humidity Pressure Visibility Wind Dir Wind Speed Gust Speed Precip Events Conditions
12:53 AM 57.0 °F 37.0 °F 47% 29.71 in 10.0 mi West 3.5 mph - N/A   Clear
1:53 AM 59.0 °F 34.0 °F 39% 29.70 in 10.0 mi South 4.6 mph - N/A   Clear
2:53 AM 55.0 °F 35.1 °F 47% 29.71 in 10.0 mi SSW 8.1 mph - N/A   Clear
3:53 AM 54.0 °F 32.0 °F 43% 29.72 in 10.0 mi SSE 4.6 mph - N/A   Clear
4:53 AM 50.0 °F 34.0 °F 54% 29.73 in 10.0 mi South 6.9 mph - N/A   Clear
5:53 AM 54.0 °F 30.9 °F 41% 29.74 in 10.0 mi SW 5.8 mph - N/A   Clear
6:53 AM 55.0 °F 33.1 °F 43% 29.76 in 10.0 mi WSW 9.2 mph - N/A   Clear
7:53 AM 63.0 °F 30.9 °F 30% 29.78 in 10.0 mi West 9.2 mph - N/A   Clear
8:53 AM 64.9 °F 32.0 °F 29% 29.80 in 10.0 mi WNW 10.4 mph - N/A   Clear
9:53 AM 70.0 °F 30.9 °F 24% 29.79 in 10.0 mi WNW 9.2 mph - N/A   Clear
10:53 AM 73.9 °F 30.9 °F 21% 29.80 in 10.0 mi WSW 5.8 mph - N/A   Clear
11:53 AM 78.1 °F 27.0 °F 15% 29.77 in 10.0 mi SSW 11.5 mph 19.6 mph N/A   Clear
12:53 PM 81.0 °F 26.1 °F 13% 29.75 in 10.0 mi SSW 18.4 mph 25.3 mph N/A   Clear
1:23 PM 82.4 °F 21.2 °F 10% 29.89 in 10.0 mi WSW 18.4 mph 29.9 mph N/A   Partly Cloudy
1:53 PM 81.0 °F 19.0 °F 10% 29.73 in 10.0 mi WSW 18.4 mph 32.2 mph N/A   Partly Cloudy
2:53 PM 82.9 °F 17.1 °F 9% 29.72 in 9.0 mi WSW 23.0 mph 29.9 mph N/A   Partly Cloudy
3:30 PM 82.4 °F 12.2 °F 7% 29.86 in 4.0 mi West 19.6 mph 33.4 mph N/A   Haze
3:53 PM 82.9 °F 10.0 °F 6% 29.69 in 5.0 mi SSW 27.6 mph 34.5 mph N/A   Haze
4:53 PM 81.0 °F 15.1 °F 8% 29.70 in 6.0 mi WSW 26.5 mph 35.7 mph N/A   Haze
5:53 PM 80.1 °F 16.0 °F 9% 29.70 in 10.0 mi WSW 21.9 mph 28.8 mph N/A   Clear
6:53 PM 77.0 °F 17.1 °F 10% 29.72 in 3.0 mi West 21.9 mph 26.5 mph N/A   Haze
7:53 PM 73.9 °F 19.0 °F 13% 29.73 in 10.0 mi West 12.7 mph - N/A   Clear
8:53 PM 71.1 °F 23.0 °F 16% 29.76 in 10.0 mi West 6.9 mph - N/A   Clear
9:53 PM 68.0 °F 26.1 °F 21% 29.77 in 10.0 mi NW 9.2 mph - N/A   Clear
10:53 PM 64.0 °F 33.1 °F 31% 29.80 in 10.0 mi ENE 20.7 mph 26.5 mph N/A   Clear
11:09 PM 62.6 °F 39.2 °F 42% 29.95 in 9.0 mi ENE 17.3 mph 26.5 mph N/A   Clear
11:53 PM 59.0 °F 39.9 °F 49% 29.83 in 10.0 mi ENE 16.1 mph - N/A   Clear